Torreon, Mexico

5:05 AM CST on December 06, 2016 (GMT -0600)
Torreon International

Weather History for MMTC - February, 2013

Change the Weather History Date:

Sunday, February 24, 2013

  Actual Average Record
Temperature  
Mean Temperature 70 °F -  
Max Temperature 85 °F 80 °F 94 °F (2015)
Min Temperature 54 °F 53 °F 44 °F (2002)
Cooling Degree Days 4    
Growing Degree Days 20 (Base 50)    
Moisture  
Dew Point 23 °F    
Average Humidity 17    
Maximum Humidity 47    
Minimum Humidity 5    
Precipitation  
Precipitation 0.00 in - - ()
Sea Level Pressure  
Sea Level Pressure 29.72 in    
Wind  
Wind Speed 5 mph ()    
Max Wind Speed 18 mph    
Max Gust Speed -    
Visibility 11.0 miles    
Events      
Averages and records for this station are not official NWS values.
T = Trace of Precipitation, MM = Missing Value Source: Averaged Metar Reports

Daily Weather History Graph

Daily Weather History Graph

Search for Another Location

Airport or City:

Trip Planner

Search our weather history database for the weather conditions in past years. The results will help you decide how hot, cold, wet, or windy it might be!

Date:

Astronomy

Feb. 24, 2013 Rise Set
Actual Time 7:21 AM CST 6:53 PM CST
Civil Twilight 6:57 AM CST 7:16 PM CST
Nautical Twilight 6:31 AM CST 7:43 PM CST
Astronomical Twilight 6:04 AM CST 8:09 PM CST
Moon 6:06 PM CST (2/24) 6:17 AM CST (2/24)
Length of Visible Light 12h 18m
Length of Day
11h 32m
Waxing Gibbous, 99% of the Moon is Illuminated
Feb 24
Waxing Gibbous
Feb 25
Full
Mar 4
Last Quarter
Mar 11
New
Mar 19
First Quarter

Hourly Weather History & Observations

Time (CST) Temp. Dew Point Humidity Pressure Visibility Wind Dir Wind Speed Gust Speed Precip Events Conditions
2:56 AM 59 °F 40 °F 37% 29.68 in 6 mi NNW 2.2 mph - -   Scattered Clouds
5:54 AM 55 °F 41 °F 47% 29.72 in 6 mi WNW 2.2 mph - -   Scattered Clouds
6:40 AM 48.2 °F 15.8 °F 27% 29.88 in 10.0 mi East 5.8 mph - N/A   Scattered Clouds
7:40 AM 48.2 °F 17.6 °F 30% 29.89 in 10.0 mi Calm Calm - N/A   Mostly Cloudy
8:43 AM 55.4 °F 23.0 °F 29% 29.77 in 10.0 mi Calm Calm - N/A   Mostly Cloudy
8:50 AM 66 °F 39 °F 26% 29.77 in 19 mi South 8.9 mph - -   Mostly Cloudy
9:40 AM 66.2 °F 32.0 °F 28% 29.91 in 10.0 mi SSE 11.5 mph - N/A   Mostly Cloudy
10:46 AM 71.6 °F 28.4 °F 20% 29.90 in 10.0 mi South 4.6 mph - N/A   Mostly Cloudy
11:40 AM 77.0 °F 30.2 °F 18% 29.73 in 10.0 mi NW 4.6 mph - N/A   Mostly Cloudy
11:50 AM 78 °F 43 °F 18% 29.73 in 19 mi South 6.7 mph - -   Mostly Cloudy
12:40 PM 75.2 °F 24.8 °F 15% 29.86 in 10.0 mi Calm Calm - N/A   Mostly Cloudy
1:40 PM 78.8 °F 17.6 °F 10% 29.81 in 10.0 mi WSW 8.1 mph - N/A   Mostly Cloudy
2:46 PM 83 °F 39 °F 12% 29.58 in 19 mi West 4.5 mph - -   Mostly Cloudy
2:46 PM 78.8 °F 15.8 °F 9% 29.58 in 10.0 mi SW 9.2 mph - N/A   Mostly Cloudy
3:40 PM 80.6 °F 14.0 °F 8% 29.74 in 10.0 mi SSW 13.8 mph - N/A   Mostly Cloudy
4:44 PM 80.6 °F 8.6 °F 6% 29.72 in 10.0 mi SSW 9.2 mph - N/A   Mostly Cloudy
5:46 PM 84 °F 36 °F 10% 29.48 in 19 mi WSW 6.7 mph - -   Mostly Cloudy
5:49 PM 80.6 °F 1.4 °F 5% 29.53 in 10.0 mi SW 11.5 mph - N/A   Mostly Cloudy
6:46 PM 78.8 °F 1.4 °F 5% 29.73 in 15.0 mi SW 9.2 mph - N/A   Mostly Cloudy
7:47 PM 75.2 °F -0.4 °F 5% 29.75 in 10.0 mi SSW 13.8 mph - N/A   Scattered Clouds
8:46 PM 73.4 °F 3.2 °F 6% 29.58 in 10.0 mi SW 6.9 mph - N/A   Scattered Clouds
8:57 PM 74 °F 34 °F 14% 29.52 in 6 mi WSW 4.5 mph - -   Scattered Clouds
9:40 PM 69.8 °F 10.4 °F 10% 29.80 in 10.0 mi Calm Calm - N/A   Scattered Clouds
10:40 PM 71.6 °F 10.4 °F 9% 29.82 in 10.0 mi SW 18.4 mph - N/A   Scattered Clouds
11:54 PM 69 °F 38 °F 21% 29.57 in 6 mi NW 4.5 mph - -   Partly Cloudy